Regional Weather Roundup
Issued by NWS

Current Version | Previous Version | Text Only | Print | Product List | Glossary On
Versions: 1 2 3 4 5 6 7 8 9 10 11 12 13 14 15 16 17 18 19 20 21 22 23 24 25 26 27 28 29 30 31 32 33 34 35 36 37 38 39 40 41 42 43 44 45 46 47 48 49 50
000
ASUS44 KFWD 251915
RWRTX
NORTH TEXAS HOURLY WEATHER ROUNDUP
NATIONAL WEATHER SERVICE FORT WORTH TX
200 PM CDT SAT JUN 25 2016

NOTE: "FAIR" INDICATES FEW OR NO CLOUDS BELOW 12,000 FEET WITH NO
SIGNIFICANT WEATHER AND/OR OBSTRUCTIONS TO VISIBILITY.

TXZ118-119-252000-
DALLAS/FORT WORTH METROPLEX

CITY           SKY/WX    TMP DP  RH WIND       PRES   REMARKS
DFW AIRPORT    PTSUNNY   91  69  48 S15       30.02F HX  96
DALLAS LOVE    PTSUNNY   94  70  45 S15G22    30.02F HX 100
FTW MEACHAM    MOSUNNY   95  70  44 S16       30.01F HX 101
DAL-EXECUTIVE  MOSUNNY   91  70  49 S12G18    30.03F HX  96
FTW-ALLIANCE   PTSUNNY   93  70  46 S7G17     30.02F HX  99
FTW-NAS-JRB    PTSUNNY   95  70  44 S16G22    30.02F HX 101
FTW-SPINKS     PTSUNNY   91  72  52 SE16G22   30.05S HX  98
ARLINGTON      MOSUNNY   95  72  47 S15G24    30.03S HX 103
GRAND PRAIRIE  SUNNY     91  70  49 S12G20    30.05S HX  97
ADDISON        MOSUNNY   91  72  52 S16       30.05S HX  98
MESQUITE       MOSUNNY   93  70  46 S15       30.04F HX  99
LANCASTER      MOSUNNY   94  71  47 S8G20     30.04F HX 101
$$

TXZ091>094-102>105-117-120-121-131>134-252000-
NORTH CENTRAL TEXAS

CITY           SKY/WX    TMP DP  RH WIND       PRES   REMARKS
SHRMAN/DENISON MOSUNNY   94  68  42 S18       30.04F HX  98
GAINESVILLE    PTSUNNY   91  71  51 S13G20    30.04F HX  98
BOWIE          MOSUNNY   91  71  52 S12G20    30.03F HX  97
BRIDGEPORT     MOSUNNY   91  71  50 S12       30.04F HX  98
DECATUR        MOSUNNY   91  68  47 S14       30.04S HX  94
DENTON         MOSUNNY   91  72  53 SE15      30.02F HX  98
MCKINNEY       MOSUNNY   91  70  49 S18       30.03F HX  96
GREENVILLE     MOSUNNY   91  70  49 S10G16    30.05F HX  97
ROCKWALL       MOSUNNY   91  73  54 S12G25    30.04S HX  99
TERRELL        MOSUNNY   93  72  50 S13       30.04F HX 101
WAXAHACHIE     MOSUNNY   91  72  53 S13       30.05S HX  98
CLEBURNE       CLOUDY    88  77  70 S13       30.06S HX 100
GRANBURY       PTSUNNY   92  69  47 S13G21    30.04S HX  97
$$

TXZ083>090-098>101-113>116-127>130-139>142-154-155-252000-
WESTERN NORTH TEXAS

CITY           SKY/WX    TMP DP  RH WIND       PRES   REMARKS
WICHITA FALLS  MOSUNNY   93  70  46 S16G24    29.98F HX  99
WF-KICKAPOO    MOSUNNY   94  66  39 S21G28    30.00F HX  97
VERNON         MOSUNNY   96  56  26 S18       29.99S HX  95
ABILENE        MOSUNNY   89  68  49 S16G26    30.04F HX  93
ABILENE-DYESS  PTSUNNY   89  68  49 S18G33    30.02F HX  92
BRECKENRIDGE   CLOUDY    90  66  45 S13G21    30.03S HAZE    HX  92
GRAHAM         MOSUNNY   93  68  43 SE12G20   30.00F HX  97
MINERAL WELLS  MOSUNNY   92  70  48 S14       30.01F HX  97
STEPHENVILLE   CLOUDY    87  69  53 S9G16     30.07F HX  91
COMANCHE       CLOUDY    88  71  56 S13       30.06F HX  94
BROWNWOOD      CLOUDY    90  68  48 S14G22    30.05S HX  93
COLEMAN        PTSUNNY   90  65  43 S15G26    30.06S HX  92
$$

TXZ143>147-156>162-174-175-252000-
CENTRAL TEXAS

CITY           SKY/WX    TMP DP  RH WIND       PRES   REMARKS
WACO           PTSUNNY   89  72  56 S15G23    30.04F HX  96
WACO-MCGREGOR  CLOUDY    88  75  65 S14       30.04F HX  97
HILLSBORO      CLOUDY    88  73  62 S12       30.05F HX  96
CORSICANA      MOSUNNY   94  73  50 S9        30.05F HX 103
MEXIA          PTSUNNY   89  74  62 S14G21    30.04F HX  98
CAMERON        CLOUDY    86  72  61 S7        30.05F HX  92
TEMPLE         CLOUDY    84  73  69 S15       30.05F HX  90
KILLEEN        CLOUDY    84  73  69 SE15      30.05S HX  91
KILLEEN-SKYLRK CLOUDY    84  74  71 SE13      30.06S HX  91
FORT HOOD      CLOUDY    84  73  69 SE16      30.04S
GATESVILLE     CLOUDY    88  72  58 S9        30.06F HX  94
HAMILTON       CLOUDY    91  70  49 S17       30.06F HX  96
LAMPASAS       CLOUDY    89  75  63 SE13G18   30.04F HX  99
$$

TXZ095>097-106>112-122>126-135>138-148>153-164>167-252000-
EAST TEXAS

CITY           SKY/WX    TMP DP  RH WIND       PRES   REMARKS
PARIS          MOSUNNY   93  66  40 S14       30.05F HX  96
SULPHUR SPRNGS PTSUNNY   91  71  50 S8G17     30.07F HX  97
MOUNT PLEASANT SUNNY     92  71  48 SE7       30.07F HX  99
GILMER         PTSUNNY   90  70  52 S5        30.06F HX  95
MINEOLA        PTSUNNY   91  73  55 S7        30.06F HX 100
TYLER          MOSUNNY   93  72  50 S13       30.06F HX 101
LONGVIEW       PTSUNNY   91  73  55 SW10      30.05F HX  99
MARSHALL       MOSUNNY   90  71  53 SE6       30.08F HX  96
ATHENS         PTSUNNY   90  72  55 S7        30.04F HX  96
PALESTINE      PTSUNNY   91  74  55 SE8       30.07F HX 100
JACKSONVILLE   MOSUNNY   90  72  55 S8        30.10F HX  97
HENDERSON      PTSUNNY   90  71  53 S5        30.08F HX  96
CENTER         MOCLDY   N/A N/A N/A E3        30.07S
NACOGDOCHES    MOSUNNY   90  73  58 SE5       30.06F HX  98
LUFKIN         MOSUNNY   91  73  55 VRB7      30.06F HX  99
$$

SUPPLEMENTAL OBSERVATIONS (CENTRAL)

CITY           SKY/WX    TMP DP  RH WIND       PRES   REMARKS
LAKE TEXOMA      N/A     91  68  46 SW9         N/A  HX  95
CADDO GRASSLND   N/A     91  70  49 S13         N/A  HX  97
PAT MAYSE LAKE   N/A     90  73  58 SE13        N/A  HX  98
ATHENS           N/A     91  72  52 S8          N/A  HX  98
LAKE LIMESTONE   N/A     91  73  55 S9G17       N/A  HX 100
MCGREGOR         N/A     86  72  62 S17         N/A  HX  92
TEMPLE           N/A     84  72  65 S14         N/A
$$

SUPPLEMENTAL OBSERVATIONS (WEST)

CITY           SKY/WX    TMP DP  RH WIND       PRES   REMARKS
MILLERS CREEK    N/A     91  66  43 S14         N/A  HX  94
POSSUM KINGDOM   N/A     95  68  41 S13G21      N/A  HX  99
LBJ GRASSLAND    N/A     91  72  52 S10         N/A  HX  98
GRANBURY         N/A     93  70  46 S17         N/A  HX  99
COMANCHE         N/A     88  70  55 S12G20      N/A  HX  92
HAMBY            N/A     91  64  40 S13G24      N/A  HX  93
$$

SUPPLEMENTAL OBSERVATIONS (EAST)

CITY           SKY/WX    TMP DP  RH WIND       PRES   REMARKS
CLARKSVILLE      N/A     93  72  49 SW3G14      N/A  HX 100
TEXARKANA        N/A     91  72  52 S5          N/A  HX  98
LINDEN           N/A     93  70  46 SW5         N/A  HX  99
CADDO LAKE       N/A     93  72  49 SE6         N/A  HX 100
GILMER           N/A     91  70  49 S5          N/A  HX  97
HENDERSON        N/A     93  72  49 SW7         N/A  HX 100
LUFKIN           N/A     91  73  55 MISG        N/A  HX 100
S SABINE NF      N/A     86  79  79 E1G9        N/A  HX  99
$$

SUPPLEMENTAL OBSERVATIONS ARE A COLLECTION OF AUTOMATED INSTRUMENTS
THAT ARE MAINTAINED BY A VARIETY OF FEDERAL AND STATE AGENCIES.
CERTAIN ELEMENTS...SUCH AS HUMIDITY VALUES AND SUSTAINED WIND
SPEEDS...MAY BE APPROXIMATED.




USA.gov is the U.S. government's official web portal to all federal, state and local government web resources and services.